Date,TemperatureHighF,TemperatureAvgF,TemperatureLowF,DewpointHighF,DewpointAvgF,DewpointLowF,HumidityHigh,HumidityAvg,HumidityLow,PressureMaxIn,PressureMinIn,WindSpeedMaxMPH,WindSpeedAvgMPH,GustSpeedMaxMPH,PrecipitationSumIn
2013-6-1,91,79,70,70,66,64,89,68,44,29.93,29.80,7,3,0,0.00
2013-6-2,86,76,68,71,67,64,95,76,58,29.84,29.70,7,3,0,0.15
2013-6-3,90,75,68,71,68,64,96,81,49,29.76,29.63,6,2,0,0.51
2013-6-4,90,75,64,70,66,63,96,76,45,29.87,29.73,8,2,0,0.24
2013-6-5,81,72,66,70,67,62,94,85,67,29.90,29.77,7,1,0,0.17
2013-6-6,82,73,70,74,70,68,96,92,76,29.78,29.61,5,2,0,1.16
2013-6-8,93,79,72,70,68,66,86,72,43,29.88,29.77,3,1,0,0.00
2013-6-9,99,77,66,73,69,65,96,79,40,29.94,29.84,5,1,0,0.13
2013-6-10,86,74,70,73,70,66,95,86,64,29.87,29.69,9,3,0,0.10
2013-6-11,104,80,68,75,67,63,96,69,30,29.79,29.72,6,2,0,0.06
2013-6-12,104,80,66,78,70,64,96,75,41,29.79,29.67,6,1,0,0.03
2013-6-13,100,80,68,76,71,64,96,78,41,29.68,29.46,8,2,0,0.67
2013-6-14,93,74,59,66,58,53,94,62,29,29.82,29.56,6,2,0,0.00
2013-6-15,91,74,59,67,60,55,95,66,37,29.93,29.83,6,1,0,0.01
2013-6-16,95,78,68,70,66,62,83,68,44,29.93,29.81,9,3,0,1.32
2013-6-17,99,77,72,72,69,66,94,78,42,29.82,29.73,7,2,0,0.57
2013-6-18,88,75,70,74,71,68,94,86,62,29.76,29.57,7,2,0,0.69
2013-6-19,95,77,64,71,66,62,95,73,38,29.90,29.69,5,1,0,0.00
2013-6-20,91,75,64,71,64,19,94,72,42,30.03,29.91,5,1,0,0.00
2013-6-21,88,68,61,65,61,57,91,81,46,30.06,30.00,4,1,0,0.00
2013-6-22,100,77,61,68,64,57,90,67,32,30.02,29.91,8,2,0,0.00
2013-6-23,99,80,68,74,68,65,94,71,38,30.00,29.91,6,1,0,0.00
2013-6-24,97,79,70,75,70,66,91,76,49,30.01,29.89,5,2,0,0.00
2013-6-25,99,81,72,75,71,67,89,73,44,29.93,29.79,6,2,0,0.00
2013-6-26,95,78,70,75,70,66,91,78,49,29.84,29.70,7,2,0,0.75
2013-6-27,95,79,70,76,72,67,94,79,53,29.74,29.52,6,2,0,0.24
2013-6-28,99,80,70,76,71,68,96,79,47,29.56,29.39,13,2,0,3.53
2013-6-29,95,80,70,75,70,68,96,75,44,29.50,29.41,6,2,0,0.00
2013-6-30,99,78,68,76,70,65,95,79,44,29.64,29.49,5,2,0,0.72